Year,Month,Day,Hour,Minute,Value (Times are PST for temperature in C)
2010,10,02,00,00,16.40
2010,10,02,00,01,16.40
2010,10,02,00,02,16.30
2010,10,02,00,03,16.30
2010,10,02,00,04,16.30
2010,10,02,00,05,16.30
2010,10,02,00,06,16.30
2010,10,02,00,07,16.30
2010,10,02,00,08,16.30
2010,10,02,00,09,16.30
2010,10,02,00,10,16.30
2010,10,02,00,11,16.30
2010,10,02,00,12,16.30
2010,10,02,00,13,16.30
2010,10,02,00,14,16.30
2010,10,02,00,15,16.30
2010,10,02,00,16,16.30
2010,10,02,00,17,16.30
2010,10,02,00,18,16.30
2010,10,02,00,19,16.30
2010,10,02,00,20,16.30
2010,10,02,00,21,16.30
2010,10,02,00,22,16.30
2010,10,02,00,23,16.30
2010,10,02,00,24,16.30
2010,10,02,00,25,16.30
2010,10,02,00,26,16.30
2010,10,02,00,27,16.30
2010,10,02,00,28,16.30
2010,10,02,00,29,16.30
2010,10,02,00,30,16.30
2010,10,02,00,31,16.30
2010,10,02,00,32,16.30
2010,10,02,00,33,16.30
2010,10,02,00,34,16.30
2010,10,02,00,35,16.30
2010,10,02,00,36,16.30
2010,10,02,00,37,16.30
2010,10,02,00,38,16.30
2010,10,02,00,39,16.30
2010,10,02,00,40,16.30
2010,10,02,00,41,16.30
2010,10,02,00,42,16.30
2010,10,02,00,43,16.30
2010,10,02,00,44,16.30
2010,10,02,00,45,16.30
2010,10,02,00,46,16.20
2010,10,02,00,47,16.20
2010,10,02,00,48,16.20
2010,10,02,00,49,16.20
2010,10,02,00,50,16.20
2010,10,02,00,51,16.20
2010,10,02,00,52,16.20
2010,10,02,00,53,16.20
2010,10,02,00,54,16.20
2010,10,02,00,55,16.20
2010,10,02,00,56,16.20
2010,10,02,00,57,16.20
2010,10,02,00,58,16.20
2010,10,02,00,59,16.20
2010,10,02,01,00,16.20
2010,10,02,01,01,16.20
2010,10,02,01,02,16.20
2010,10,02,01,03,16.20
2010,10,02,01,04,16.20
2010,10,02,01,05,16.20
2010,10,02,01,06,16.20
2010,10,02,01,07,16.20
2010,10,02,01,08,16.20
2010,10,02,01,09,16.20
2010,10,02,01,10,16.20
2010,10,02,01,11,16.20
2010,10,02,01,12,16.20
2010,10,02,01,13,16.20
2010,10,02,01,14,16.20
2010,10,02,01,15,16.20
2010,10,02,01,16,16.20
2010,10,02,01,17,16.20
2010,10,02,01,18,16.20
2010,10,02,01,19,16.20
2010,10,02,01,20,16.20
2010,10,02,01,21,16.20
2010,10,02,01,22,16.20
2010,10,02,01,23,16.20
2010,10,02,01,24,16.20
2010,10,02,01,25,16.20
2010,10,02,01,26,16.20
2010,10,02,01,27,16.20
2010,10,02,01,28,16.20
2010,10,02,01,29,16.20
2010,10,02,01,30,16.20
2010,10,02,01,31,16.20
2010,10,02,01,32,16.20
2010,10,02,01,33,16.20
2010,10,02,01,34,16.20
2010,10,02,01,35,16.20
2010,10,02,01,36,16.20
2010,10,02,01,37,16.20
2010,10,02,01,38,16.20
2010,10,02,01,39,16.20
2010,10,02,01,40,16.20
2010,10,02,01,41,16.20
2010,10,02,01,42,16.20
2010,10,02,01,43,16.20
2010,10,02,01,44,16.20
2010,10,02,01,45,16.20
2010,10,02,01,46,16.20
2010,10,02,01,47,16.20
2010,10,02,01,48,16.20
2010,10,02,01,49,16.20
2010,10,02,01,50,16.20
2010,10,02,01,51,16.20
2010,10,02,01,52,16.20
2010,10,02,01,53,16.20
2010,10,02,01,54,16.20
2010,10,02,01,55,16.20
2010,10,02,01,56,16.20
2010,10,02,01,57,16.20
2010,10,02,01,58,16.20
2010,10,02,01,59,16.20
2010,10,02,02,00,16.20
2010,10,02,02,01,16.20
2010,10,02,02,02,16.20
2010,10,02,02,03,16.20
2010,10,02,02,04,16.10
2010,10,02,02,05,16.10
2010,10,02,02,06,16.10
2010,10,02,02,07,16.10
2010,10,02,02,08,16.10
2010,10,02,02,09,16.10
2010,10,02,02,10,16.10
2010,10,02,02,11,16.10
2010,10,02,02,12,16.10
2010,10,02,02,13,16.10
2010,10,02,02,14,16.10
2010,10,02,02,15,16.10
2010,10,02,02,16,16.10
2010,10,02,02,17,16.10
2010,10,02,02,18,16.10
2010,10,02,02,19,16.10
2010,10,02,02,20,16.10
2010,10,02,02,21,16.10
2010,10,02,02,22,16.10
2010,10,02,02,23,16.10
2010,10,02,02,24,16.10
2010,10,02,02,25,16.10
2010,10,02,02,26,16.10
2010,10,02,02,27,16.10
2010,10,02,02,28,16.10
2010,10,02,02,29,16.10
2010,10,02,02,30,16.10
2010,10,02,02,31,16.10
2010,10,02,02,32,16.10
2010,10,02,02,33,16.10
2010,10,02,02,34,16.10
2010,10,02,02,35,16.00
2010,10,02,02,36,15.90
2010,10,02,02,37,15.90
2010,10,02,02,38,15.90
2010,10,02,02,39,15.90
2010,10,02,02,40,15.90
2010,10,02,02,41,15.90
2010,10,02,02,42,15.90
2010,10,02,02,43,15.90
2010,10,02,02,44,15.90
2010,10,02,02,45,15.90
2010,10,02,02,46,15.90
2010,10,02,02,47,15.90
2010,10,02,02,48,15.80
2010,10,02,02,49,15.80
2010,10,02,02,50,15.80
2010,10,02,02,51,15.80
2010,10,02,02,52,15.80
2010,10,02,02,53,15.80
2010,10,02,02,54,15.80
2010,10,02,02,55,15.80
2010,10,02,02,56,15.80
2010,10,02,02,57,15.80
2010,10,02,02,58,15.80
2010,10,02,02,59,15.80
2010,10,02,03,00,15.80
2010,10,02,03,01,15.80
2010,10,02,03,02,15.80
2010,10,02,03,03,15.80
2010,10,02,03,04,15.80
2010,10,02,03,05,15.80
2010,10,02,03,06,15.80
2010,10,02,03,07,15.80
2010,10,02,03,08,15.80
2010,10,02,03,09,15.80
2010,10,02,03,10,15.80
2010,10,02,03,11,15.80
2010,10,02,03,12,15.70
2010,10,02,03,13,15.70
2010,10,02,03,14,15.70
2010,10,02,03,15,15.70
2010,10,02,03,16,15.70
2010,10,02,03,17,15.70
2010,10,02,03,18,15.70
2010,10,02,03,19,15.70
2010,10,02,03,20,15.70
2010,10,02,03,21,15.70
2010,10,02,03,22,15.70
2010,10,02,03,23,15.70
2010,10,02,03,24,15.70
2010,10,02,03,25,15.60
2010,10,02,03,26,15.60
2010,10,02,03,27,15.60
2010,10,02,03,28,15.60
2010,10,02,03,29,15.60
2010,10,02,03,30,15.60
2010,10,02,03,31,15.60
2010,10,02,03,32,15.60
2010,10,02,03,33,15.60
2010,10,02,03,34,15.60
2010,10,02,03,35,15.60
2010,10,02,03,36,15.50
2010,10,02,03,37,15.50
2010,10,02,03,38,15.50
2010,10,02,03,39,15.50
2010,10,02,03,40,15.50
2010,10,02,03,41,15.50
2010,10,02,03,42,15.50
2010,10,02,03,43,15.50
2010,10,02,03,44,15.50
2010,10,02,03,45,15.50
2010,10,02,03,46,15.50
2010,10,02,03,47,15.40
2010,10,02,03,48,15.40
2010,10,02,03,49,15.40
2010,10,02,03,50,15.40
2010,10,02,03,51,15.40
2010,10,02,03,52,15.40
2010,10,02,03,53,15.40
2010,10,02,03,54,15.40
2010,10,02,03,55,15.30
2010,10,02,03,56,15.30
2010,10,02,03,57,15.30
2010,10,02,03,58,15.30
2010,10,02,03,59,15.30
2010,10,02,04,00,15.30
2010,10,02,04,01,15.30
2010,10,02,04,02,15.30
2010,10,02,04,03,15.20
2010,10,02,04,04,15.20
2010,10,02,04,05,15.20
2010,10,02,04,06,15.20
2010,10,02,04,07,15.20
2010,10,02,04,08,15.20
2010,10,02,04,09,15.10
2010,10,02,04,10,15.10
2010,10,02,04,11,15.10
2010,10,02,04,12,15.10
2010,10,02,04,13,15.00
2010,10,02,04,14,15.00
2010,10,02,04,15,15.00
2010,10,02,04,16,15.00
2010,10,02,04,17,15.00
2010,10,02,04,18,15.00
2010,10,02,04,19,14.90
2010,10,02,04,20,14.90
2010,10,02,04,21,14.90
2010,10,02,04,22,14.90
2010,10,02,04,23,14.90
2010,10,02,04,24,14.80
2010,10,02,04,25,14.80
2010,10,02,04,26,14.80
2010,10,02,04,27,14.80
2010,10,02,04,28,14.80
2010,10,02,04,29,14.80
2010,10,02,04,30,14.80
2010,10,02,04,31,14.80
2010,10,02,04,32,14.80
2010,10,02,04,33,14.80
2010,10,02,04,34,14.80
2010,10,02,04,35,14.80
2010,10,02,04,36,14.70
2010,10,02,04,37,14.70
2010,10,02,04,38,14.70
2010,10,02,04,39,14.70
2010,10,02,04,40,14.70
2010,10,02,04,41,14.70
2010,10,02,04,42,14.70
2010,10,02,04,43,14.70
2010,10,02,04,44,14.60
2010,10,02,04,45,14.60
2010,10,02,04,46,14.60
2010,10,02,04,47,14.60
2010,10,02,04,48,14.60
2010,10,02,04,49,14.60
2010,10,02,04,50,14.60
2010,10,02,04,51,14.60
2010,10,02,04,52,14.60
2010,10,02,04,53,14.50
2010,10,02,04,54,14.50
2010,10,02,04,55,14.50
2010,10,02,04,56,14.50
2010,10,02,04,57,14.40
2010,10,02,04,58,14.40
2010,10,02,04,59,14.40
2010,10,02,05,00,14.30
2010,10,02,05,01,14.30
2010,10,02,05,02,14.30
2010,10,02,05,03,14.30
2010,10,02,05,04,14.20
2010,10,02,05,05,14.20
2010,10,02,05,06,14.20
2010,10,02,05,07,14.20
2010,10,02,05,08,14.20
2010,10,02,05,09,14.20
2010,10,02,05,10,14.20
2010,10,02,05,11,14.20
2010,10,02,05,12,14.20
2010,10,02,05,13,14.20
2010,10,02,05,14,14.20
2010,10,02,05,15,14.20
2010,10,02,05,16,14.10
2010,10,02,05,17,14.10
2010,10,02,05,18,14.10
2010,10,02,05,19,14.00
2010,10,02,05,20,14.00
2010,10,02,05,21,14.00
2010,10,02,05,22,13.90
2010,10,02,05,23,13.90
2010,10,02,05,24,13.90
2010,10,02,05,25,13.90
2010,10,02,05,26,13.80
2010,10,02,05,27,13.80
2010,10,02,05,28,13.80
2010,10,02,05,29,13.70
2010,10,02,05,30,13.70
2010,10,02,05,31,13.70
2010,10,02,05,32,13.60
2010,10,02,05,33,13.60
2010,10,02,05,34,13.50
2010,10,02,05,35,13.50
2010,10,02,05,36,13.40
2010,10,02,05,37,13.30
2010,10,02,05,38,13.30
2010,10,02,05,39,13.30
2010,10,02,05,40,13.20
2010,10,02,05,41,13.20
2010,10,02,05,42,13.20
2010,10,02,05,43,13.10
2010,10,02,05,44,13.10
2010,10,02,05,45,13.00
2010,10,02,05,46,13.00
2010,10,02,05,47,13.00
2010,10,02,05,48,12.90
2010,10,02,05,49,12.90
2010,10,02,05,50,12.90
2010,10,02,05,51,12.80
2010,10,02,05,52,12.80
2010,10,02,05,53,12.80
2010,10,02,05,54,12.80
2010,10,02,05,55,12.80
2010,10,02,05,56,12.80
2010,10,02,05,57,12.80
2010,10,02,05,58,12.80
2010,10,02,05,59,12.80
2010,10,02,06,00,12.80
2010,10,02,06,01,12.80
2010,10,02,06,02,12.70
2010,10,02,06,03,12.70
2010,10,02,06,04,12.70
2010,10,02,06,05,12.70
2010,10,02,06,06,12.70
2010,10,02,06,07,12.60
2010,10,02,06,08,12.60
2010,10,02,06,09,12.60
2010,10,02,06,10,12.60
2010,10,02,06,11,12.60
2010,10,02,06,12,12.60
2010,10,02,06,13,12.60
2010,10,02,06,14,12.60
2010,10,02,06,15,12.60
2010,10,02,06,16,12.60
2010,10,02,06,17,12.60
2010,10,02,06,18,12.60
2010,10,02,06,19,12.60
2010,10,02,06,20,12.60
2010,10,02,06,21,12.60
2010,10,02,06,22,12.60
2010,10,02,06,23,12.60
2010,10,02,06,24,12.70
2010,10,02,06,25,12.70
2010,10,02,06,26,12.70
2010,10,02,06,27,12.70
2010,10,02,06,28,12.70
2010,10,02,06,29,12.70
2010,10,02,06,30,12.80
2010,10,02,06,31,12.80
2010,10,02,06,32,12.80
2010,10,02,06,33,12.80
2010,10,02,06,34,12.80
2010,10,02,06,35,12.80
2010,10,02,06,36,12.90
2010,10,02,06,37,12.90
2010,10,02,06,38,13.00
2010,10,02,06,39,13.00
2010,10,02,06,40,13.10
2010,10,02,06,41,13.10
2010,10,02,06,42,13.20
2010,10,02,06,43,13.20
2010,10,02,06,44,13.20
2010,10,02,06,45,13.20
2010,10,02,06,46,13.20
2010,10,02,06,47,13.20
2010,10,02,06,48,13.20
2010,10,02,06,49,13.20
2010,10,02,06,50,13.20
2010,10,02,06,51,13.20
2010,10,02,06,52,13.20
2010,10,02,06,53,13.20
2010,10,02,06,54,13.20
2010,10,02,06,55,13.20
2010,10,02,06,56,13.20
2010,10,02,06,57,13.20
2010,10,02,06,58,13.10
2010,10,02,06,59,13.10
2010,10,02,07,00,13.10
2010,10,02,07,01,13.10
2010,10,02,07,02,13.10
2010,10,02,07,03,13.00
2010,10,02,07,04,13.00
2010,10,02,07,05,13.00
2010,10,02,07,06,12.90
2010,10,02,07,07,12.90
2010,10,02,07,08,12.90
2010,10,02,07,09,12.90
2010,10,02,07,10,12.80
2010,10,02,07,11,12.80
2010,10,02,07,12,12.80
2010,10,02,07,13,12.80
2010,10,02,07,14,12.80
2010,10,02,07,15,12.80
2010,10,02,07,16,12.80
2010,10,02,07,17,12.80
2010,10,02,07,18,12.80
2010,10,02,07,19,12.80
2010,10,02,07,20,12.80
2010,10,02,07,21,12.80
2010,10,02,07,22,12.70
2010,10,02,07,23,12.70
2010,10,02,07,24,12.70
2010,10,02,07,25,12.70
2010,10,02,07,26,12.70
2010,10,02,07,27,12.70
2010,10,02,07,28,12.70
2010,10,02,07,29,12.70
2010,10,02,07,30,12.70
2010,10,02,07,31,12.60
2010,10,02,07,32,12.60
2010,10,02,07,33,12.60
2010,10,02,07,34,12.60
2010,10,02,07,35,12.60
2010,10,02,07,36,12.60
2010,10,02,07,37,12.60
2010,10,02,07,38,12.60
2010,10,02,07,39,12.60
2010,10,02,07,40,12.60
2010,10,02,07,41,12.60
2010,10,02,07,42,12.60
2010,10,02,07,43,12.60
2010,10,02,07,44,12.60
2010,10,02,07,45,12.60
2010,10,02,07,46,12.60
2010,10,02,07,47,12.70
2010,10,02,07,48,12.70
2010,10,02,07,49,12.70
2010,10,02,07,50,12.70
2010,10,02,07,51,12.70
2010,10,02,07,52,12.70
2010,10,02,07,53,12.70
2010,10,02,07,54,12.70
2010,10,02,07,55,12.70
2010,10,02,07,56,12.70
2010,10,02,07,57,12.70
2010,10,02,07,58,12.70
2010,10,02,07,59,12.70
2010,10,02,08,00,12.70
2010,10,02,08,01,12.70
2010,10,02,08,02,12.70
2010,10,02,08,03,12.70
2010,10,02,08,04,12.70
2010,10,02,08,05,12.70
2010,10,02,08,06,12.70
2010,10,02,08,07,12.70
2010,10,02,08,08,12.70
2010,10,02,08,09,12.70
2010,10,02,08,10,12.70
2010,10,02,08,11,12.80
2010,10,02,08,12,12.80
2010,10,02,08,13,12.80
2010,10,02,08,14,12.80
2010,10,02,08,15,12.80
2010,10,02,08,16,12.80
2010,10,02,08,17,12.80
2010,10,02,08,18,12.80
2010,10,02,08,19,12.80
2010,10,02,08,20,12.80
2010,10,02,08,21,12.80
2010,10,02,08,22,12.80
2010,10,02,08,23,12.80
2010,10,02,08,24,12.80
2010,10,02,08,25,12.80
2010,10,02,08,26,12.80
2010,10,02,08,27,12.80
2010,10,02,08,28,12.80
2010,10,02,08,29,12.80
2010,10,02,08,30,12.80
2010,10,02,08,31,12.80
2010,10,02,08,32,12.80
2010,10,02,08,33,12.80
2010,10,02,08,34,12.80
2010,10,02,08,35,12.80
2010,10,02,08,36,12.80
2010,10,02,08,37,12.80
2010,10,02,08,38,12.80
2010,10,02,08,39,12.80
2010,10,02,08,40,12.80
2010,10,02,08,41,12.90
2010,10,02,08,42,12.90
2010,10,02,08,43,12.90
2010,10,02,08,44,12.90
2010,10,02,08,45,12.90
2010,10,02,08,46,12.90
2010,10,02,08,47,12.90
2010,10,02,08,48,12.90
2010,10,02,08,49,13.00
2010,10,02,08,50,13.00
2010,10,02,08,51,13.00
2010,10,02,08,52,13.10
2010,10,02,08,53,13.10
2010,10,02,08,54,13.10
2010,10,02,08,55,13.10
2010,10,02,08,56,13.20
2010,10,02,08,57,13.20
2010,10,02,08,58,13.20
2010,10,02,08,59,13.30
2010,10,02,09,00,13.30
2010,10,02,09,01,13.30
2010,10,02,09,02,13.30
2010,10,02,09,03,13.30
2010,10,02,09,04,13.30
2010,10,02,09,05,13.30
2010,10,02,09,06,13.40
2010,10,02,09,07,13.40
2010,10,02,09,08,13.40
2010,10,02,09,09,13.50
2010,10,02,09,10,13.50
2010,10,02,09,11,13.50
2010,10,02,09,12,13.60
2010,10,02,09,13,13.60
2010,10,02,09,14,13.60
2010,10,02,09,15,13.70
2010,10,02,09,16,13.70
2010,10,02,09,17,13.70
2010,10,02,09,18,13.70
2010,10,02,09,19,13.70
2010,10,02,09,20,13.70
2010,10,02,09,21,13.80
2010,10,02,09,22,13.80
2010,10,02,09,23,13.90
2010,10,02,09,24,13.90
2010,10,02,09,25,13.90
2010,10,02,09,26,14.00
2010,10,02,09,27,14.00
2010,10,02,09,28,14.10
2010,10,02,09,29,14.10
2010,10,02,09,30,14.20
2010,10,02,09,31,14.20
2010,10,02,09,32,14.30
2010,10,02,09,33,14.40
2010,10,02,09,34,14.50
2010,10,02,09,35,14.60
2010,10,02,09,36,14.60
2010,10,02,09,37,14.60
2010,10,02,09,38,14.60
2010,10,02,09,39,14.60
2010,10,02,09,40,14.60
2010,10,02,09,41,14.60
2010,10,02,09,42,14.70
2010,10,02,09,43,14.80
2010,10,02,09,44,14.80
2010,10,02,09,45,14.90
2010,10,02,09,46,14.90
2010,10,02,09,47,14.90
2010,10,02,09,48,14.90
2010,10,02,09,49,14.90
2010,10,02,09,50,14.90
2010,10,02,09,51,14.90
2010,10,02,09,52,14.90
2010,10,02,09,53,14.90
2010,10,02,09,54,14.90
2010,10,02,09,55,14.90
2010,10,02,09,56,14.90
2010,10,02,09,57,14.90
2010,10,02,09,58,14.90
2010,10,02,09,59,14.90
2010,10,02,10,00,14.90
2010,10,02,10,01,14.90
2010,10,02,10,02,14.90
2010,10,02,10,03,14.90
2010,10,02,10,04,14.90
2010,10,02,10,05,15.00
2010,10,02,10,06,15.00
2010,10,02,10,07,15.10
2010,10,02,10,08,15.10
2010,10,02,10,09,15.10
2010,10,02,10,10,15.00
2010,10,02,10,11,15.00
2010,10,02,10,12,14.90
2010,10,02,10,13,14.90
2010,10,02,10,14,14.90
2010,10,02,10,15,14.90
2010,10,02,10,16,14.90
2010,10,02,10,17,14.90
2010,10,02,10,18,14.90
2010,10,02,10,19,14.90
2010,10,02,10,20,14.90
2010,10,02,10,21,14.90
2010,10,02,10,22,14.90
2010,10,02,10,23,14.90
2010,10,02,10,24,15.00
2010,10,02,10,25,15.10
2010,10,02,10,26,15.10
2010,10,02,10,27,15.10
2010,10,02,10,28,15.10
2010,10,02,10,29,15.20
2010,10,02,10,30,15.20
2010,10,02,10,31,15.10
2010,10,02,10,32,15.10
2010,10,02,10,33,15.00
2010,10,02,10,34,15.00
2010,10,02,10,35,15.00
2010,10,02,10,36,15.00
2010,10,02,10,37,15.00
2010,10,02,10,38,15.00
2010,10,02,10,39,15.00
2010,10,02,10,40,15.00
2010,10,02,10,41,15.00
2010,10,02,10,42,15.00
2010,10,02,10,43,15.10
2010,10,02,10,44,15.00
2010,10,02,10,45,15.00
2010,10,02,10,46,15.00
2010,10,02,10,47,15.10
2010,10,02,10,48,15.00
2010,10,02,10,49,15.00
2010,10,02,10,50,15.00
2010,10,02,10,51,15.00
2010,10,02,10,52,15.00
2010,10,02,10,53,15.00
2010,10,02,10,54,14.90
2010,10,02,10,55,14.90
2010,10,02,10,56,14.90
2010,10,02,10,57,14.90
2010,10,02,10,58,15.00
2010,10,02,10,59,15.00
2010,10,02,11,00,15.10
2010,10,02,11,01,15.10
2010,10,02,11,02,15.10
2010,10,02,11,03,15.10
2010,10,02,11,04,15.10
2010,10,02,11,05,15.10
2010,10,02,11,06,15.20
2010,10,02,11,07,15.20
2010,10,02,11,08,15.30
2010,10,02,11,09,15.30
2010,10,02,11,10,15.30
2010,10,02,11,11,15.30
2010,10,02,11,12,15.30
2010,10,02,11,13,15.40
2010,10,02,11,14,15.50
2010,10,02,11,15,15.60
2010,10,02,11,16,15.70
2010,10,02,11,17,15.70
2010,10,02,11,18,15.70
2010,10,02,11,19,15.70
2010,10,02,11,20,15.60
2010,10,02,11,21,15.50
2010,10,02,11,22,15.40
2010,10,02,11,23,15.40
2010,10,02,11,24,15.40
2010,10,02,11,25,15.50
2010,10,02,11,26,15.50
2010,10,02,11,27,15.60
2010,10,02,11,28,15.60
2010,10,02,11,29,15.80
2010,10,02,11,30,15.90
2010,10,02,11,31,15.80
2010,10,02,11,32,15.90
2010,10,02,11,33,16.10
2010,10,02,11,34,16.00
2010,10,02,11,35,15.90
2010,10,02,11,36,15.90
2010,10,02,11,37,15.80
2010,10,02,11,38,15.90
2010,10,02,11,39,15.90
2010,10,02,11,40,15.90
2010,10,02,11,41,16.00
2010,10,02,11,42,16.10
2010,10,02,11,43,16.10
2010,10,02,11,44,16.10
2010,10,02,11,45,16.10
2010,10,02,11,46,16.00
2010,10,02,11,47,15.90
2010,10,02,11,48,15.90
2010,10,02,11,49,15.90
2010,10,02,11,50,16.00
2010,10,02,11,51,16.10
2010,10,02,11,52,16.10
2010,10,02,11,53,16.10
2010,10,02,11,54,16.20
2010,10,02,11,55,16.30
2010,10,02,11,56,16.40
2010,10,02,11,57,16.40
2010,10,02,11,58,16.40
2010,10,02,11,59,16.40
2010,10,02,12,00,16.50
2010,10,02,12,01,16.70
2010,10,02,12,02,16.70
2010,10,02,12,03,16.70
2010,10,02,12,04,16.80
2010,10,02,12,05,16.90
2010,10,02,12,06,17.00
2010,10,02,12,07,17.20
2010,10,02,12,08,17.10
2010,10,02,12,09,17.10
2010,10,02,12,10,17.30
2010,10,02,12,11,17.30
2010,10,02,12,12,17.20
2010,10,02,12,13,17.10
2010,10,02,12,14,17.00
2010,10,02,12,15,16.90
2010,10,02,12,16,16.80
2010,10,02,12,17,16.80
2010,10,02,12,18,16.80
2010,10,02,12,19,16.90
2010,10,02,12,20,17.00
2010,10,02,12,21,17.00
2010,10,02,12,22,17.00
2010,10,02,12,23,17.00
2010,10,02,12,24,17.10
2010,10,02,12,25,17.20
2010,10,02,12,26,17.20
2010,10,02,12,27,17.20
2010,10,02,12,28,17.20
2010,10,02,12,29,17.30
2010,10,02,12,30,17.30
2010,10,02,12,31,17.20
2010,10,02,12,32,17.20
2010,10,02,12,33,17.20
2010,10,02,12,34,17.20
2010,10,02,12,35,17.30
2010,10,02,12,36,17.30
2010,10,02,12,37,17.30
2010,10,02,12,38,17.30
2010,10,02,12,39,17.40
2010,10,02,12,40,17.40
2010,10,02,12,41,17.50
2010,10,02,12,42,17.60
2010,10,02,12,43,17.70
2010,10,02,12,44,17.80
2010,10,02,12,45,18.00
2010,10,02,12,46,18.10
2010,10,02,12,47,18.20
2010,10,02,12,48,18.30
2010,10,02,12,49,18.30
2010,10,02,12,50,18.30
2010,10,02,12,51,18.40
2010,10,02,12,52,18.40
2010,10,02,12,53,18.40
2010,10,02,12,54,18.40
2010,10,02,12,55,18.40
2010,10,02,12,56,18.40
2010,10,02,12,57,18.50
2010,10,02,12,58,18.60
2010,10,02,12,59,18.60
2010,10,02,13,00,18.60
2010,10,02,13,01,18.50
2010,10,02,13,02,18.40
2010,10,02,13,03,18.20
2010,10,02,13,04,18.20
2010,10,02,13,05,18.30
2010,10,02,13,06,18.40
2010,10,02,13,07,18.40
2010,10,02,13,08,18.30
2010,10,02,13,09,18.20
2010,10,02,13,10,18.20
2010,10,02,13,11,18.20
2010,10,02,13,12,18.10
2010,10,02,13,13,18.10
2010,10,02,13,14,18.10
2010,10,02,13,15,18.20
2010,10,02,13,16,18.30
2010,10,02,13,17,18.40
2010,10,02,13,18,18.40
2010,10,02,13,19,18.40
2010,10,02,13,20,18.50
2010,10,02,13,21,18.60
2010,10,02,13,22,18.60
2010,10,02,13,23,18.70
2010,10,02,13,24,18.60
2010,10,02,13,25,18.40
2010,10,02,13,26,18.30
2010,10,02,13,27,18.30
2010,10,02,13,28,18.30
2010,10,02,13,29,18.30
2010,10,02,13,30,18.30
2010,10,02,13,31,18.40
2010,10,02,13,32,18.50
2010,10,02,13,33,18.50
2010,10,02,13,34,18.60
2010,10,02,13,35,18.60
2010,10,02,13,36,18.70
2010,10,02,13,37,18.70
2010,10,02,13,38,18.60
2010,10,02,13,39,18.60
2010,10,02,13,40,18.60
2010,10,02,13,41,18.70
2010,10,02,13,42,18.70
2010,10,02,13,43,18.60
2010,10,02,13,44,18.40
2010,10,02,13,45,18.30
2010,10,02,13,46,18.20
2010,10,02,13,47,18.20
2010,10,02,13,48,18.30
2010,10,02,13,49,18.30
2010,10,02,13,50,18.30
2010,10,02,13,51,18.40
2010,10,02,13,52,18.50
2010,10,02,13,53,18.60
2010,10,02,13,54,18.60
2010,10,02,13,55,18.70
2010,10,02,13,56,18.70
2010,10,02,13,57,18.70
2010,10,02,13,58,18.80
2010,10,02,13,59,18.90
2010,10,02,14,00,18.90
2010,10,02,14,01,18.90
2010,10,02,14,02,18.70
2010,10,02,14,03,18.60
2010,10,02,14,04,18.50
2010,10,02,14,05,18.40
2010,10,02,14,06,18.30
2010,10,02,14,07,18.20
2010,10,02,14,08,18.30
2010,10,02,14,09,18.20
2010,10,02,14,10,18.20
2010,10,02,14,11,18.20
2010,10,02,14,12,18.30
2010,10,02,14,13,18.40
2010,10,02,14,14,18.50
2010,10,02,14,15,18.50
2010,10,02,14,16,18.60
2010,10,02,14,17,18.70
2010,10,02,14,18,18.80
2010,10,02,14,19,18.70
2010,10,02,14,20,18.70
2010,10,02,14,21,18.70
2010,10,02,14,22,18.80
2010,10,02,14,23,18.90
2010,10,02,14,24,19.00
2010,10,02,14,25,19.10
2010,10,02,14,26,19.20
2010,10,02,14,27,19.30
2010,10,02,14,28,19.30
2010,10,02,14,29,19.20
2010,10,02,14,30,19.10
2010,10,02,14,31,19.10
2010,10,02,14,32,19.10
2010,10,02,14,33,19.20
2010,10,02,14,34,19.10
2010,10,02,14,35,19.10
2010,10,02,14,36,19.20
2010,10,02,14,37,19.10
2010,10,02,14,38,19.10
2010,10,02,14,39,19.10
2010,10,02,14,40,19.00
2010,10,02,14,41,19.10
2010,10,02,14,42,19.10
2010,10,02,14,43,19.10
2010,10,02,14,44,19.10
2010,10,02,14,45,19.10
2010,10,02,14,46,19.10
2010,10,02,14,47,19.10
2010,10,02,14,48,19.10
2010,10,02,14,49,19.00
2010,10,02,14,50,18.90
2010,10,02,14,51,18.90
2010,10,02,14,52,18.80
2010,10,02,14,53,18.80
2010,10,02,14,54,18.70
2010,10,02,14,55,18.70
2010,10,02,14,56,18.70
2010,10,02,14,57,18.60
2010,10,02,14,58,18.60
2010,10,02,14,59,18.60
2010,10,02,15,00,18.60
2010,10,02,15,01,18.50
2010,10,02,15,02,18.50
2010,10,02,15,03,18.40
2010,10,02,15,04,18.40
2010,10,02,15,05,18.40
2010,10,02,15,06,18.50
2010,10,02,15,07,18.50
2010,10,02,15,08,18.50
2010,10,02,15,09,18.40
2010,10,02,15,10,18.30
2010,10,02,15,11,18.30
2010,10,02,15,12,18.20
2010,10,02,15,13,18.20
2010,10,02,15,14,18.20
2010,10,02,15,15,18.20
2010,10,02,15,16,18.20
2010,10,02,15,17,18.20
2010,10,02,15,18,18.30
2010,10,02,15,19,18.40
2010,10,02,15,20,18.50
2010,10,02,15,21,18.60
2010,10,02,15,22,18.70
2010,10,02,15,23,18.70
2010,10,02,15,24,18.80
2010,10,02,15,25,18.80
2010,10,02,15,26,18.80
2010,10,02,15,27,18.90
2010,10,02,15,28,18.90
2010,10,02,15,29,18.80
2010,10,02,15,30,18.80
2010,10,02,15,31,18.80
2010,10,02,15,32,18.70
2010,10,02,15,33,18.80
2010,10,02,15,34,18.80
2010,10,02,15,35,18.90
2010,10,02,15,36,19.10
2010,10,02,15,37,19.20
2010,10,02,15,38,19.20
2010,10,02,15,39,19.30
2010,10,02,15,40,19.30
2010,10,02,15,41,19.30
2010,10,02,15,42,19.30
2010,10,02,15,43,19.30
2010,10,02,15,44,19.20
2010,10,02,15,45,19.20
2010,10,02,15,46,19.10
2010,10,02,15,47,19.00
2010,10,02,15,48,18.90
2010,10,02,15,49,18.90
2010,10,02,15,50,18.90
2010,10,02,15,51,18.90
2010,10,02,15,52,18.80
2010,10,02,15,53,18.70
2010,10,02,15,54,18.70
2010,10,02,15,55,18.60
2010,10,02,15,56,18.50
2010,10,02,15,57,18.40
2010,10,02,15,58,18.20
2010,10,02,15,59,18.10
2010,10,02,16,00,18.10
2010,10,02,16,01,18.10
2010,10,02,16,02,18.20
2010,10,02,16,03,18.30
2010,10,02,16,04,18.40
2010,10,02,16,05,18.50
2010,10,02,16,06,18.60
2010,10,02,16,07,18.60
2010,10,02,16,08,18.60
2010,10,02,16,09,18.60
2010,10,02,16,10,18.60
2010,10,02,16,11,18.70
2010,10,02,16,12,18.90
2010,10,02,16,13,18.90
2010,10,02,16,14,18.90
2010,10,02,16,15,18.70
2010,10,02,16,16,18.60
2010,10,02,16,17,18.60
2010,10,02,16,18,18.50
2010,10,02,16,19,18.40
2010,10,02,16,20,18.40
2010,10,02,16,21,18.40
2010,10,02,16,22,18.40
2010,10,02,16,23,18.40
2010,10,02,16,24,18.40
2010,10,02,16,25,18.40
2010,10,02,16,26,18.40
2010,10,02,16,27,18.30
2010,10,02,16,28,18.30
2010,10,02,16,29,18.20
2010,10,02,16,30,18.20
2010,10,02,16,31,18.20
2010,10,02,16,32,18.30
2010,10,02,16,33,18.40
2010,10,02,16,34,18.50
2010,10,02,16,35,18.50
2010,10,02,16,36,18.60
2010,10,02,16,37,18.60
2010,10,02,16,38,18.60
2010,10,02,16,39,18.60
2010,10,02,16,40,18.60
2010,10,02,16,41,18.60
2010,10,02,16,42,18.60
2010,10,02,16,43,18.70
2010,10,02,16,44,18.70
2010,10,02,16,45,18.80
2010,10,02,16,46,18.80
2010,10,02,16,47,18.80
2010,10,02,16,48,18.80
2010,10,02,16,49,18.80
2010,10,02,16,50,18.90
2010,10,02,16,51,18.90
2010,10,02,16,52,18.90
2010,10,02,16,53,19.00
2010,10,02,16,54,19.10
2010,10,02,16,55,19.10
2010,10,02,16,56,19.10
2010,10,02,16,57,19.10
2010,10,02,16,58,19.10
2010,10,02,16,59,19.10
2010,10,02,17,00,19.10
2010,10,02,17,01,19.10
2010,10,02,17,02,19.00
2010,10,02,17,03,18.90
2010,10,02,17,04,18.90
2010,10,02,17,05,18.90
2010,10,02,17,06,18.90
2010,10,02,17,07,18.90
2010,10,02,17,08,19.00
2010,10,02,17,09,19.00
2010,10,02,17,10,18.90
2010,10,02,17,11,18.90
2010,10,02,17,12,18.90
2010,10,02,17,13,18.70
2010,10,02,17,14,18.50
2010,10,02,17,15,18.40
2010,10,02,17,16,18.20
2010,10,02,17,17,18.00
2010,10,02,17,18,17.90
2010,10,02,17,19,17.80